Time,TemperatureF,DewpointF,PressureIn,WindDirection,WindDirectionDegrees,WindSpeedMPH,WindSpeedGustMPH,Humidity,HourlyPrecipIn,Conditions,Clouds,dailyrainin,SoftwareType,DateUTC
2013-09-27 00:01:00,47.4,46.0,30.07,NE,43,0.0,0.0,93,0.00,,,0.00,weatherlink.com 1.10,2013-09-27 04:01:00,
2013-09-27 00:16:00,47.5,46.0,30.07,NE,43,0.0,0.0,94,0.00,,,0.00,weatherlink.com 1.10,2013-09-27 04:16:00,
2013-09-27 00:31:00,47.3,45.0,30.07,NE,43,0.0,0.0,93,0.00,,,0.00,weatherlink.com 1.10,2013-09-27 04:31:00,
2013-09-27 00:46:00,47.6,46.0,30.08,NE,43,0.0,0.0,94,0.00,,,0.00,weatherlink.com 1.10,2013-09-27 04:46:00,
2013-09-27 01:01:00,47.8,46.0,30.08,NE,43,0.0,0.0,94,0.00,,,0.00,weatherlink.com 1.10,2013-09-27 05:01:00,
2013-09-27 01:16:00,47.0,45.0,30.08,NE,43,0.0,0.0,93,0.00,,,0.00,weatherlink.com 1.10,2013-09-27 05:16:00,
2013-09-27 01:31:00,47.8,46.0,30.08,NE,42,0.0,0.0,94,0.00,,,0.00,weatherlink.com 1.10,2013-09-27 05:31:00,
2013-09-27 01:46:00,47.9,47.0,30.09,NE,42,0.0,0.0,95,0.00,,,0.00,weatherlink.com 1.10,2013-09-27 05:46:00,
2013-09-27 02:01:00,47.8,46.0,30.09,NE,42,0.0,0.0,94,0.00,,,0.00,weatherlink.com 1.10,2013-09-27 06:01:00,
2013-09-27 02:16:00,47.9,46.0,30.09,NE,43,0.0,0.0,94,0.00,,,0.00,weatherlink.com 1.10,2013-09-27 06:16:00,
2013-09-27 02:31:00,47.5,46.0,30.09,NE,43,0.0,0.0,94,0.00,,,0.00,weatherlink.com 1.10,2013-09-27 06:31:00,
2013-09-27 02:46:00,47.3,46.0,30.09,NE,42,0.0,0.0,94,0.00,,,0.00,weatherlink.com 1.10,2013-09-27 06:46:00,
2013-09-27 03:01:00,47.3,46.0,30.09,NE,42,0.0,0.0,94,0.00,,,0.00,weatherlink.com 1.10,2013-09-27 07:01:00,
2013-09-27 03:16:00,46.9,45.0,30.09,NE,43,0.0,0.0,94,0.00,,,0.00,weatherlink.com 1.10,2013-09-27 07:16:00,
2013-09-27 03:31:00,46.9,45.0,30.09,NE,43,0.0,0.0,94,0.00,,,0.00,weatherlink.com 1.10,2013-09-27 07:31:00,
2013-09-27 03:46:00,46.7,45.0,30.09,NE,43,0.0,0.0,94,0.00,,,0.00,weatherlink.com 1.10,2013-09-27 07:46:00,
2013-09-27 04:01:00,46.8,45.0,30.09,NE,42,0.0,0.0,94,0.00,,,0.00,weatherlink.com 1.10,2013-09-27 08:01:00,
2013-09-27 04:16:00,46.8,46.0,30.09,NE,42,0.0,0.0,95,0.00,,,0.00,weatherlink.com 1.10,2013-09-27 08:16:00,
2013-09-27 04:31:00,46.2,45.0,30.10,NE,42,0.0,0.0,94,0.00,,,0.00,weatherlink.com 1.10,2013-09-27 08:31:00,
2013-09-27 04:46:00,46.1,45.0,30.10,NE,42,0.0,0.0,94,0.00,,,0.00,weatherlink.com 1.10,2013-09-27 08:46:00,
2013-09-27 05:01:00,46.5,45.0,30.10,NE,42,0.0,0.0,95,0.00,,,0.00,weatherlink.com 1.10,2013-09-27 09:01:00,
2013-09-27 05:16:00,46.3,45.0,30.11,NE,42,0.0,0.0,95,0.00,,,0.00,weatherlink.com 1.10,2013-09-27 09:16:00,
2013-09-27 05:31:00,46.5,45.0,30.11,NE,42,0.0,0.0,95,0.00,,,0.00,weatherlink.com 1.10,2013-09-27 09:31:00,
2013-09-27 05:46:00,45.9,44.0,30.11,NE,42,0.0,0.0,94,0.00,,,0.00,weatherlink.com 1.10,2013-09-27 09:46:00,
2013-09-27 06:02:00,45.4,44.0,30.12,NE,42,0.0,0.0,94,0.00,,,0.00,weatherlink.com 1.10,2013-09-27 10:02:00,
2013-09-27 06:17:00,45.7,44.0,30.12,NE,42,0.0,0.0,95,0.00,,,0.00,weatherlink.com 1.10,2013-09-27 10:17:00,
2013-09-27 06:32:00,45.3,44.0,30.13,NE,42,0.0,0.0,95,0.00,,,0.00,weatherlink.com 1.10,2013-09-27 10:32:00,
2013-09-27 06:47:00,45.2,44.0,30.13,NE,42,0.0,0.0,95,0.00,,,0.00,weatherlink.com 1.10,2013-09-27 10:47:00,
2013-09-27 07:02:00,44.8,44.0,30.14,NE,42,0.0,0.0,95,0.00,,,0.00,weatherlink.com 1.10,2013-09-27 11:02:00,
2013-09-27 07:17:00,45.4,44.0,30.14,NE,42,0.0,0.0,95,0.00,,,0.00,weatherlink.com 1.10,2013-09-27 11:17:00,
2013-09-27 07:32:00,47.0,46.0,30.15,NE,42,0.0,0.0,95,0.00,,,0.00,weatherlink.com 1.10,2013-09-27 11:32:00,
2013-09-27 07:47:00,47.7,47.0,30.16,NE,42,0.0,0.0,96,0.00,,,0.00,weatherlink.com 1.10,2013-09-27 11:47:00,
2013-09-27 08:02:00,49.3,48.0,30.16,NE,42,0.0,0.0,96,0.00,,,0.00,weatherlink.com 1.10,2013-09-27 12:02:00,
2013-09-27 08:17:00,52.1,51.0,30.16,NE,42,0.0,0.0,96,0.00,,,0.00,weatherlink.com 1.10,2013-09-27 12:17:00,
2013-09-27 08:32:00,53.9,53.0,30.17,North,1,0.0,0.0,96,0.00,,,0.00,weatherlink.com 1.10,2013-09-27 12:32:00,
2013-09-27 08:47:00,55.6,55.0,30.17,NNE,16,1.0,2.0,97,0.00,,,0.00,weatherlink.com 1.10,2013-09-27 12:47:00,
2013-09-27 09:02:00,57.1,56.0,30.17,NE,45,2.0,4.0,97,0.00,,,0.00,weatherlink.com 1.10,2013-09-27 13:02:00,
2013-09-27 09:17:00,58.2,57.0,30.18,NE,35,6.0,7.0,96,0.00,,,0.00,weatherlink.com 1.10,2013-09-27 13:17:00,
2013-09-27 09:32:00,60.0,57.0,30.18,NE,35,2.0,5.0,91,0.00,,,0.00,weatherlink.com 1.10,2013-09-27 13:32:00,
2013-09-27 09:47:00,61.6,58.0,30.18,NE,34,5.0,5.0,88,0.00,,,0.00,weatherlink.com 1.10,2013-09-27 13:47:00,
2013-09-27 10:02:00,62.9,58.0,30.18,NNE,25,3.0,6.0,84,0.00,,,0.00,weatherlink.com 1.10,2013-09-27 14:02:00,
2013-09-27 10:17:00,64.4,58.0,30.18,NW,313,4.0,7.0,79,0.00,,,0.00,weatherlink.com 1.10,2013-09-27 14:17:00,
2013-09-27 10:32:00,66.0,56.0,30.18,NE,47,2.0,8.0,71,0.00,,,0.00,weatherlink.com 1.10,2013-09-27 14:32:00,
2013-09-27 10:47:00,67.0,56.0,30.19,NNE,20,5.0,9.0,69,0.00,,,0.00,weatherlink.com 1.10,2013-09-27 14:47:00,
2013-09-27 11:03:00,65.6,57.0,30.19,NW,323,3.0,6.0,73,0.00,,,0.00,weatherlink.com 1.10,2013-09-27 15:03:00,
2013-09-27 11:18:00,67.1,56.0,30.19,SSE,153,0.0,4.0,68,0.00,,,0.00,weatherlink.com 1.10,2013-09-27 15:18:00,
2013-09-27 11:33:00,66.1,55.0,30.18,NE,51,4.0,7.0,67,0.00,,,0.00,weatherlink.com 1.10,2013-09-27 15:33:00,
2013-09-27 11:48:00,66.4,56.0,30.19,North,352,3.0,5.0,69,0.00,,,0.00,weatherlink.com 1.10,2013-09-27 15:48:00,
2013-09-27 12:03:00,66.9,55.0,30.19,NE,53,5.0,6.0,65,0.00,,,0.00,weatherlink.com 1.10,2013-09-27 16:03:00,
2013-09-27 12:18:00,66.1,56.0,30.18,ENE,58,5.0,6.0,71,0.00,,,0.00,weatherlink.com 1.10,2013-09-27 16:18:00,
2013-09-27 12:33:00,65.6,57.0,30.18,ENE,63,2.0,7.0,73,0.00,,,0.00,weatherlink.com 1.10,2013-09-27 16:33:00,
2013-09-27 12:48:00,66.4,54.0,30.18,ENE,59,4.0,4.0,65,0.00,,,0.00,weatherlink.com 1.10,2013-09-27 16:48:00,
2013-09-27 13:03:00,67.8,55.0,30.18,ENE,65,5.0,8.0,64,0.00,,,0.00,weatherlink.com 1.10,2013-09-27 17:03:00,
2013-09-27 13:18:00,67.1,56.0,30.18,ENE,60,3.0,6.0,67,0.00,,,0.00,weatherlink.com 1.10,2013-09-27 17:18:00,
2013-09-27 13:33:00,66.8,56.0,30.17,NE,43,4.0,8.0,68,0.00,,,0.00,weatherlink.com 1.10,2013-09-27 17:33:00,
2013-09-27 13:48:00,67.5,55.0,30.17,NE,55,4.0,9.0,64,0.00,,,0.00,weatherlink.com 1.10,2013-09-27 17:48:00,
2013-09-27 14:03:00,67.2,55.0,30.16,NE,39,3.0,7.0,64,0.00,,,0.00,weatherlink.com 1.10,2013-09-27 18:03:00,
2013-09-27 14:18:00,67.4,54.0,30.16,ENE,65,5.0,6.0,63,0.00,,,0.00,weatherlink.com 1.10,2013-09-27 18:18:00,
2013-09-27 14:48:00,68.5,55.0,30.16,ENE,67,3.0,9.0,62,0.00,,,0.00,weatherlink.com 1.10,2013-09-27 18:48:00,
2013-09-27 15:03:00,66.8,55.0,30.15,ENE,59,2.0,7.0,67,0.00,,,0.00,weatherlink.com 1.10,2013-09-27 19:03:00,
2013-09-27 15:18:00,66.2,56.0,30.15,ENE,59,3.0,5.0,70,0.00,,,0.00,weatherlink.com 1.10,2013-09-27 19:18:00,
2013-09-27 15:33:00,67.0,55.0,30.15,ENE,75,2.0,3.0,66,0.00,,,0.00,weatherlink.com 1.10,2013-09-27 19:33:00,
2013-09-27 15:48:00,67.6,55.0,30.15,NNE,14,2.0,5.0,65,0.00,,,0.00,weatherlink.com 1.10,2013-09-27 19:48:00,
2013-09-27 16:03:00,69.3,55.0,30.15,NE,45,3.0,6.0,61,0.00,,,0.00,weatherlink.com 1.10,2013-09-27 20:03:00,
2013-09-27 16:18:00,67.0,55.0,30.15,ENE,58,5.0,11.0,66,0.00,,,0.00,weatherlink.com 1.10,2013-09-27 20:18:00,
2013-09-27 16:33:00,66.3,57.0,30.16,NE,39,4.0,5.0,71,0.00,,,0.00,weatherlink.com 1.10,2013-09-27 20:33:00,
2013-09-27 16:48:00,66.2,56.0,30.16,East,82,3.0,8.0,70,0.00,,,0.00,weatherlink.com 1.10,2013-09-27 20:48:00,
2013-09-27 17:03:00,65.5,56.0,30.16,East,82,3.0,5.0,72,0.00,,,0.00,weatherlink.com 1.10,2013-09-27 21:03:00,
2013-09-27 17:18:00,66.2,54.0,30.16,NE,53,6.0,9.0,66,0.00,,,0.00,weatherlink.com 1.10,2013-09-27 21:18:00,
2013-09-27 17:33:00,66.7,55.0,30.16,East,86,4.0,9.0,66,0.00,,,0.00,weatherlink.com 1.10,2013-09-27 21:33:00,
2013-09-27 17:48:00,65.8,55.0,30.17,ENE,70,2.0,5.0,69,0.00,,,0.00,weatherlink.com 1.10,2013-09-27 21:48:00,
2013-09-27 18:03:00,64.1,56.0,30.17,ENE,69,1.0,4.0,75,0.00,,,0.00,weatherlink.com 1.10,2013-09-27 22:03:00,
2013-09-27 18:18:00,62.5,56.0,30.17,East,82,2.0,5.0,78,0.00,,,0.00,weatherlink.com 1.10,2013-09-27 22:18:00,
2013-09-27 18:33:00,62.1,56.0,30.18,NE,50,3.0,6.0,79,0.00,,,0.00,weatherlink.com 1.10,2013-09-27 22:33:00,
2013-09-27 18:48:00,61.9,55.0,30.18,ENE,64,3.0,9.0,78,0.00,,,0.00,weatherlink.com 1.10,2013-09-27 22:48:00,
2013-09-27 19:03:00,61.5,55.0,30.18,East,80,2.0,5.0,79,0.00,,,0.00,weatherlink.com 1.10,2013-09-27 23:03:00,
2013-09-27 19:18:00,61.0,55.0,30.19,NE,46,1.0,4.0,81,0.00,,,0.00,weatherlink.com 1.10,2013-09-27 23:18:00,
2013-09-27 19:33:00,60.4,55.0,30.19,ENE,73,1.0,2.0,83,0.00,,,0.00,weatherlink.com 1.10,2013-09-27 23:33:00,
2013-09-27 19:48:00,60.3,56.0,30.19,ENE,69,2.0,3.0,84,0.00,,,0.00,weatherlink.com 1.10,2013-09-27 23:48:00,
2013-09-27 20:03:00,60.2,55.0,30.20,NE,56,1.0,4.0,84,0.00,,,0.00,weatherlink.com 1.10,2013-09-28 00:03:00,
2013-09-27 20:18:00,60.0,55.0,30.20,ENE,68,2.0,3.0,84,0.00,,,0.00,weatherlink.com 1.10,2013-09-28 00:18:00,
2013-09-27 20:33:00,60.1,55.0,30.20,ENE,75,0.0,4.0,84,0.00,,,0.00,weatherlink.com 1.10,2013-09-28 00:33:00,
2013-09-27 20:48:00,59.9,55.0,30.20,ENE,57,1.0,2.0,85,0.00,,,0.00,weatherlink.com 1.10,2013-09-28 00:48:00,
2013-09-27 21:03:00,59.8,55.0,30.21,ENE,68,0.0,2.0,85,0.00,,,0.00,weatherlink.com 1.10,2013-09-28 01:03:00,
2013-09-27 21:18:00,59.5,55.0,30.21,ENE,71,0.0,0.0,86,0.00,,,0.00,weatherlink.com 1.10,2013-09-28 01:18:00,
2013-09-27 21:33:00,59.1,55.0,30.22,ENE,71,0.0,0.0,87,0.00,,,0.00,weatherlink.com 1.10,2013-09-28 01:33:00,
2013-09-27 21:48:00,59.0,55.0,30.22,NE,47,0.0,1.0,87,0.00,,,0.00,weatherlink.com 1.10,2013-09-28 01:48:00,
2013-09-27 22:03:00,59.0,56.0,30.22,NNE,22,0.0,2.0,88,0.00,,,0.00,weatherlink.com 1.10,2013-09-28 02:03:00,
2013-09-27 22:18:00,58.8,55.0,30.23,NNE,22,0.0,0.0,88,0.00,,,0.00,weatherlink.com 1.10,2013-09-28 02:18:00,
2013-09-27 22:33:00,59.0,56.0,30.23,SE,126,0.0,0.0,88,0.00,,,0.00,weatherlink.com 1.10,2013-09-28 02:33:00,
2013-09-27 22:48:00,58.8,55.0,30.23,SE,126,0.0,0.0,88,0.00,,,0.00,weatherlink.com 1.10,2013-09-28 02:48:00,
2013-09-27 23:03:00,58.5,55.0,30.23,East,88,0.0,0.0,87,0.00,,,0.00,weatherlink.com 1.10,2013-09-28 03:03:00,
2013-09-27 23:18:00,56.9,54.0,30.23,NNE,17,0.0,0.0,89,0.00,,,0.00,weatherlink.com 1.10,2013-09-28 03:18:00,
2013-09-27 23:33:00,56.3,54.0,30.23,NNE,17,0.0,0.0,91,0.00,,,0.00,weatherlink.com 1.10,2013-09-28 03:33:00,
2013-09-27 23:48:00,56.2,54.0,30.23,NNE,17,0.0,0.0,91,0.00,,,0.00,weatherlink.com 1.10,2013-09-28 03:48:00,